weather.gov     
National Weather Service

Regional Weather Roundup
NWS Homepage
This page is being discontinued on March 12, 2014.
The same data is available at this site. Please update your bookmarks.
Thank you, and we apologize for the inconvenience.
Please send an email to SR-SRH.Webmaster@noaa.gov with any concerns.


Current Version
Previous Version:    01  02  03  04  05  06  07  08  09  10  11  12  13  14  15  16  17  18  19  20  21  22  23  24  
[Printable]
022
ASUS44 KSJT 162110
RWRSJT
WEST CENTRAL TEXAS REGIONAL WEATHER ROUNDUP
NATIONAL WEATHER SERVICE SAN ANGELO TX
400 PM CDT TUE SEP 16 2014

NOTE: "FAIR" INDICATES FEW OR NO CLOUDS BELOW 12,000 FEET WITH NO
SIGNIFICANT WEATHER AND/OR OBSTRUCTIONS TO VISIBILITY.

TXZ049-054-064>066-071>073-076>078-098-099-113-114-127-128-139-140-
154-155-168>170-162200
...LOCATIONS ACROSS WEST CENTRAL TEXAS...

CITY           SKY/WX    TMP DP  RH WIND       PRES   REMARKS
SAN ANGELO     CLOUDY    89  66  46 E8        30.05F
ABILENE        CLOUDY    87  63  44 SE7       30.06F
DYESS AFB      PTSUNNY   87  64  46 SE5       30.05F
JUNCTION       MOSUNNY   92  63  38 MISG      30.01F
SWEETWATER     PTSUNNY   82  66  59 SE7       30.12F
BROWNWOOD      LGT RAIN  90  64  43 N7        30.03F
COLEMAN        CLOUDY    88  60  38 CALM      30.06F
SONORA         MOSUNNY   90  63  40 E7        30.07F
OZONA          FAIR      86  59  39 SE9       30.08F
BRADY          NOT AVBL
$$

TEXAS PANHANDLE/OKLAHOMA PANHANDLE

CITY           SKY/WX    TMP DP  RH WIND       PRES   REMARKS
AMARILLO       CLOUDY    77  62  59 S7        30.15F
BORGER         MOSUNNY   79  61  53 SW13G22   30.11F
CANADIAN       MOSUNNY   85  65  50 S6        30.06F
DALHART        MOSUNNY   79  59  50 SW20G25   30.15F
DUMAS          PTCLDY    77  61  57 S17       30.14F
GUYMON         NOT AVBL
HEREFORD       CLOUDY    78  65  63 S8        30.16F
PAMPA          PTCLDY    79  60  51 SW13      30.13F
PERRYTON       SUNNY     85  59  42 S17       30.08F
$$

SOUTHERN PANHANDLE/SOUTH PLAINS/ROLLING PLAINS

CITY           SKY/WX    TMP DP  RH WIND       PRES   REMARKS
LUBBOCK        CLOUDY    76  63  64 S13       30.14F
SNYDER         CLOUDY    82  66  58 SE5       30.11F
CHILDRESS      PTSUNNY   83  67  58 CALM      30.08F
SEMINOLE       CLOUDY    75  65  72 NW9       30.16F
$$

PERMIAN BASIN

CITY           SKY/WX    TMP DP  RH WIND       PRES   REMARKS
MIDLAND        CLOUDY    81  64  56 S3        30.11F
ODESSA         PTSUNNY   81  63  54 SE3       30.12F
WINK           PTSUNNY   83  61  47 SE7       30.09F
$$

FAR WEST/SOUTHWEST MOUNTAINS/TRANS PECOS

CITY           SKY/WX    TMP DP  RH WIND       PRES   REMARKS
ALPINE         PTCLDY    79  59  50 E12       30.23F
DRYDEN           N/A     91  64  40 E10       30.04F
EL PASO        PTSUNNY   80  62  54 E12       30.11F
FORT STOCKTON  PTSUNNY   82  62  50 SE12      30.11F
GUADALUPE PASS PTSUNNY   70  60  70 NE22      30.25F
MARFA          MOSUNNY   77  57  50 E9        30.21F
PECOS          MOCLDY    83  60  45 E9        30.08F
$$

DALLAS/FORT WORTH METROPLEX

CITY           SKY/WX    TMP DP  RH WIND       PRES   REMARKS
DFW AIRPORT    CLOUDY    90  67  46 NE6       30.01F
FTW MEACHAM    PTSUNNY   89  67  47 E5        30.01F
DAL-EXECUTIVE  PTSUNNY   91  67  44 CALM      30.01F
GRAND PRAIRIE  SUNNY     88  66  48 MISG      30.03F
ADDISON        CLOUDY    88  64  45 E6        30.03F
MESQUITE         N/A     91  64  40 E3        30.01F
LANCASTER      MOCLDY    88  66  47 NE5       30.02F
$$

NORTH CENTRAL TEXAS

CITY           SKY/WX    TMP DP  RH WIND       PRES   REMARKS
SHRMAN/DENISON MOCLDY    88  68  51 S6        30.04F
GAINESVILLE    PTSUNNY   86  68  53 S5        30.06F
BRIDGEPORT     CLOUDY    88  65  46 NE7       30.05F
DENTON         PTSUNNY   89  65  44 SE8       30.01F
WAXAHACHIE     CLOUDY    87  64  45 E3        30.03F
GRANBURY       MOCLDY    91  66  44 E6        30.02F
$$

WESTERN NORTH TEXAS

CITY           SKY/WX    TMP DP  RH WIND       PRES   REMARKS
WICHITA FALLS  PTSUNNY   88  67  49 SE9       30.02F
VERNON         CLOUDY    88  64  45 SE5       30.05F
BRECKENRIDGE   CLOUDY    89  63  41 E7        30.03F HAZE
COMANCHE         N/A     91  64  39 E5        30.04F
$$

CENTRAL AND SOUTH CENTRAL TEXAS

CITY           SKY/WX    TMP DP  RH WIND       PRES   REMARKS
AUSTIN/BERGSTM MOSUNNY   94  70  45 NE12      29.94F
WACO           LGT RAIN  81  71  71 NE9       30.01F
HILLSBORO      MOCLDY    84  70  62 CALM      30.03F
TEMPLE         CLOUDY    95  68  41 N12       29.98F
KILLEEN-GRAY   PTSUNNY   91  70  49 N5        29.99F
FORT HOOD      PTSUNNY   93  70  46 N13       29.99F THUNDER
GEORGETOWN     MOSUNNY   93  66  40 E6        29.98F
LAGO VISTA     FAIR      90  66  45 CALM      30.00F
SAN MARCOS     MOSUNNY   93  68  43 NE9       29.95F
NEW BRAUNFELS  PTSUNNY   94  69  44 E14       29.94F
RANDOLPH AFB   MOSUNNY   90  69  50 N10       29.96F
SAN ANTONIO    PTSUNNY   92  70  48 N13G20    29.96F
STINSON        CLOUDY    88  72  58 S13G20    29.94F
PLEASANTON     NOT AVBL
LA GRANGE      MOSUNNY   89  76  65 NE6       29.94S
GIDDINGS       PTCLDY    91  70  50 NE7       29.99F
$$

EAST TEXAS

CITY           SKY/WX    TMP DP  RH WIND       PRES   REMARKS
PARIS          PTSUNNY   86  66  51 E5        30.04F
CLARKSVILLE    NOT AVBL
TYLER          PTSUNNY   89  70  53 E8        30.02F
LONGVIEW       PTSUNNY   90  68  48 NE6       30.01F
PALESTINE      CLOUDY    88  73  60 E5        30.01F
NACOGDOCHES    MOSUNNY   90  72  55 NE6       30.00F
$$

TEXAS HILL COUNTRY AND EDWARDS PLATEAU

CITY           SKY/WX    TMP DP  RH WIND       PRES   REMARKS
LLANO          MOCLDY    93  66  40 NE8       30.01F
HORSESHOE BAY  FAIR      91  63  39 SE8       29.99F
KERRVILLE      MOSUNNY   89  69  51 E7        30.02F
FREDERICKSBRG  MOSUNNY   88  66  47 E8        30.02F
ROCKSPRINGS    PTCLDY    90  63  40 CALM      30.06F
HONDO          MOSUNNY   96  67  38 NE13G20   29.97F
UVALDE         MOCLDY    93  68  43 E7        29.96F
DEL RIO        MOSUNNY   89  69  51 S6        29.97F
$$

SOUTHEAST TEXAS

CITY           SKY/WX    TMP DP  RH WIND       PRES   REMARKS
COLLEGE STN    MOSUNNY   92  73  53 NE12      29.96F
CALDWELL       PTCLDY    91  72  52 NE8       29.99F
CROCKETT         N/A     91  75  59 NE7       30.01F
BRENHAM        SUNNY     91  72  52 NE7       29.95F
HUNTSVILLE     MOSUNNY   94  70  45 VRB6      29.97F
CONROE         LGT RAIN  82  74  76 SE10G22   29.98S
HOUSTON BUSH   CLOUDY    85  74  69 E15       29.98F
HOUSTON HOBBY  LGT RAIN  78  76  93 SE9       29.98S
PERLAND        CLOUDY    85  75  72 SE6       30.00F
WHARTON        TSTM      75  73  95 S22       29.98S VSB 3/4
$$

THE UPPER TEXAS COAST

CITY           SKY/WX    TMP DP  RH WIND       PRES   REMARKS
ORANGE         MOCLDY    82  77  85 S12G17    30.01S
PORT ARTHUR    LGT RAIN  78  76  93 S5        29.99F
GALVESTON      CLOUDY    84  77  79 SE7       30.00S
ANGLETON       LGT RAIN  77  76  96 CALM      29.99F
BAY CITY       CLOUDY    82  79  91 SW3       29.97S
$$

TEXAS COASTAL BEND, RIO GRANDE PLAINS DEEP SOUTH TEXAS

CITY           SKY/WX    TMP DP  RH WIND       PRES   REMARKS
VICTORIA       CLOUDY    82  76  81 S5        29.96F
BEEVILLE       FAIR      85  77  77 SE9       29.93F
ROCKPORT       CLOUDY    85  75  72 S8        29.94F
PORT ARANSAS   MOCLDY    85  76  74 SE8       29.94F
PORT LAVACA    RAIN      78  74  89 W7        29.96S
CORPUS CHRISTI PTSUNNY   87  77  72 SE10      29.92F
KINGSVILLE NAS PTSUNNY   88  78  72 SW10      29.91F
COTULLA        LGT RAIN  80  74  81 S13       29.94S
LAREDO         HVY RAIN  79  77  94 N18G28    29.97S FOG
BROWNSVILLE    MOSUNNY   89  75  63 S13       29.92F
PORT ISABEL    MOSUNNY   90  73  57 S14       29.92F
HEBBRONVILLE     N/A     80  76  86 CALM      29.95F
MCALLEN        PTSUNNY   87  75  67 SW5       29.93F
WESLACO        PTSUNNY   88  74  62 SW9       29.92F
FALFURRIAS     CLOUDY    78  67  68 SW5       29.92F
EDINBURG       MOCLDY    89  74  60 S5        29.92F
$$




U.S. Dept. of Commerce
NOAA National Weather Service
1325 East West Highway
Silver Spring, MD 20910
E-mail: w-nws.webmaster@noaa.gov
Page last modified: May 16, 2007
NATIONAL WEATHER SERVICE: for Safety, for Work, for Fun - FOR LIFE